Voltar ao catálogo

COSMOS 2251 DEB

LostLEO
NORAD 37275·DEBRIS·🇷🇺 Russia

Lançado Jun 16, 1993 de Plesetsk Cosmodrome

Loading…

Próximas Passagens (próximas 24 horas)

TLE

ObsoletoSource: Space-Track

Época: Jul 23, 2026, 09:09 UTC

1 37275U 93036BHP 26204.38143584  .00011414  00000-0  27016-2 0  9994
2 37275  74.0155 212.7826 0081604  42.7953 317.9522 14.52102743864720

Acompanhe COSMOS 2251 DEB em tempo real com AllMySat

Download on the App Store